Weather History for PAIN - May, 2013

Change the Weather History Date:

Sunday, May 5, 2013

  Actual Average Record
Temperature  
Mean Temperature 25 °F -  
Max Temperature 35 °F - - ()
Min Temperature 15 °F - - ()
Degree Days  
Heating Degree Days 40    
Moisture  
Dew Point 15 °F    
Average Humidity 63    
Maximum Humidity 100    
Minimum Humidity 35    
Precipitation  
Precipitation 0.00 in - - ()
Sea Level Pressure  
Sea Level Pressure 30.06 in    
Wind  
Wind Speed 1 mph (WNW)    
Max Wind Speed 9 mph    
Max Gust Speed -    
Visibility 10 miles    
Events      
T = Trace of Precipitation, MM = Missing Value Source: NWS Daily Summary

Daily Weather History Graph

Daily Weather History Graph

Search for Another Location

Airport or City:

Trip Planner

Search our weather history database for the weather conditions in past years. The results will help you decide how hot, cold, wet, or windy it might be!

Date:

Astronomy

May. 05, 2013 Rise Set
Actual Time 5:15 AM AKDT 10:30 PM AKDT
Civil Twilight 4:03 AM AKDT 11:45 PM AKDT
Nautical Twilight 2:24 AM AKDT 1:19 AM AKDT
Astronomical Twilight Sun does not rise Sun does not rise
Moon 4:20 AM AKDT (5/5) 5:22 PM AKDT (5/5)
Length of Visible Light 19h 42m
Length of Day
17h 14m
Waning Crescent, 17% of the Moon is Illuminated
May 5
Waning Crescent
May 9
New
May 17
First Quarter
May 24
Full
May 31
Last Quarter

Hourly Weather History & Observations

Time (AKDT) Temp. Windchill Dew Point Humidity Pressure Visibility Wind Dir Wind Speed Gust Speed Precip Events Conditions
12:16 AM 23.0 °F - 17.6 °F 80% 29.96 in 10.0 mi Calm Calm - N/A   Overcast
12:36 AM 23.0 °F - 17.6 °F 80% 29.96 in 10.0 mi Calm Calm - N/A   Mostly Cloudy
12:56 AM 21.2 °F - 17.6 °F 86% 29.97 in 10.0 mi Calm Calm - N/A   Scattered Clouds
1:16 AM 21.2 °F - 17.6 °F 86% 29.97 in 10.0 mi Calm Calm - N/A   Mostly Cloudy
1:36 AM 21.2 °F - 17.6 °F 86% 29.98 in 10.0 mi Calm Calm - N/A   Overcast
1:56 AM 21.2 °F - 17.6 °F 86% 29.99 in 10.0 mi Calm Calm - N/A   Overcast
2:16 AM 21.2 °F - 19.4 °F 93% 29.99 in 10.0 mi Calm Calm - N/A   Overcast
2:36 AM 21.2 °F - 19.4 °F 93% 30.00 in 6.0 mi Calm Calm - N/A   Overcast
2:56 AM 21.2 °F - 19.4 °F 93% 30.01 in 8.0 mi Calm Calm - N/A   Overcast
3:16 AM 21.2 °F - 19.4 °F 93% 30.01 in 8.0 mi Calm Calm - N/A   Overcast
3:36 AM 21.2 °F - 17.6 °F 86% 30.02 in 10.0 mi Calm Calm - N/A   Overcast
3:56 AM 19.4 °F - 17.6 °F 93% 30.02 in 10.0 mi Calm Calm - N/A   Overcast
4:16 AM 19.4 °F - 17.6 °F 93% 30.03 in 10.0 mi Calm Calm - N/A   Overcast
4:36 AM 19.4 °F - 17.6 °F 93% 30.03 in 10.0 mi Calm Calm - N/A   Overcast
4:56 AM 17.6 °F - 15.8 °F 93% 30.04 in 10.0 mi Calm Calm - N/A   Mostly Cloudy
5:16 AM 17.6 °F - 15.8 °F 93% 30.04 in 9.0 mi Calm Calm - N/A   Mostly Cloudy
5:36 AM 15.8 °F - 15.8 °F 100% 30.05 in 10.0 mi Calm Calm - N/A   Scattered Clouds
5:56 AM 15.8 °F - 14.0 °F 93% 30.05 in 10.0 mi Calm Calm - N/A   Mostly Cloudy
6:16 AM 15.8 °F - 14.0 °F 93% 30.06 in 10.0 mi Calm Calm - N/A   Overcast
6:36 AM 15.8 °F - 14.0 °F 93% 30.06 in 10.0 mi Calm Calm - N/A   Mostly Cloudy
6:56 AM 15.8 °F - 14.0 °F 93% 30.07 in 10.0 mi Calm Calm - N/A   Scattered Clouds
7:16 AM 17.6 °F - 15.8 °F 93% 30.07 in 10.0 mi Calm Calm - N/A   Scattered Clouds
7:36 AM 21.2 °F - 17.6 °F 86% 30.08 in 10.0 mi Calm Calm - N/A   Mostly Cloudy
7:56 AM 24.8 °F - 17.6 °F 74% 30.08 in 10.0 mi Calm Calm - N/A   Mostly Cloudy
8:16 AM 24.8 °F - 17.6 °F 74% 30.08 in 10.0 mi Calm Calm - N/A   Partly Cloudy
8:36 AM 26.6 °F - 17.6 °F 69% 30.08 in 10.0 mi Calm Calm - N/A   Clear
8:56 AM 26.6 °F - 17.6 °F 69% 30.09 in 10.0 mi Calm Calm - N/A   Scattered Clouds
9:16 AM 26.6 °F - 17.6 °F 69% 30.09 in 10.0 mi Calm Calm - N/A   Mostly Cloudy
9:36 AM 30.2 °F - 17.6 °F 60% 30.09 in 10.0 mi Calm Calm - N/A   Mostly Cloudy
9:56 AM 33.8 °F - 19.4 °F 56% 30.08 in 10.0 mi Calm Calm - N/A   Mostly Cloudy
10:16 AM 28.4 °F - 19.4 °F 69% 30.08 in 10.0 mi Calm Calm - N/A   Mostly Cloudy
10:36 AM 30.2 °F - 19.4 °F 64% 30.08 in 10.0 mi Calm Calm - N/A   Overcast
10:56 AM 30.2 °F 25.4 °F 19.4 °F 64% 30.08 in 10.0 mi South 4.6 mph - N/A   Overcast
11:16 AM 30.2 °F 26.7 °F 19.4 °F 64% 30.08 in 10.0 mi NNE 3.5 mph - N/A   Overcast
11:36 AM 30.2 °F - 19.4 °F 64% 30.08 in 8.0 mi Calm Calm - N/A   Overcast
11:56 AM 32.0 °F - 17.6 °F 55% 30.08 in 10.0 mi Calm Calm - N/A   Overcast
12:16 PM 32.0 °F 27.5 °F 17.6 °F 55% 30.08 in 10.0 mi North 4.6 mph - N/A   Overcast
12:36 PM 33.8 °F 28.6 °F 14.0 °F 44% 30.08 in 10.0 mi WSW 5.8 mph - N/A   Mostly Cloudy
12:56 PM 33.8 °F 28.6 °F 14.0 °F 44% 30.08 in 10.0 mi West 5.8 mph - N/A   Scattered Clouds
1:16 PM 33.8 °F 29.6 °F 12.2 °F 41% 30.07 in 10.0 mi NNW 4.6 mph - N/A   Scattered Clouds
1:36 PM 33.8 °F 28.6 °F 12.2 °F 41% 30.07 in 10.0 mi WNW 5.8 mph - N/A   Partly Cloudy
1:56 PM 35.6 °F 29.9 °F 12.2 °F 38% 30.07 in 10.0 mi SSW 6.9 mph - N/A   Partly Cloudy
2:16 PM 35.6 °F 29.2 °F 12.2 °F 38% 30.07 in 10.0 mi SSW 8.1 mph - N/A   Scattered Clouds
2:36 PM 35.6 °F - 10.4 °F 35% 30.07 in 10.0 mi Calm Calm - N/A   Partly Cloudy
2:56 PM 35.6 °F 30.7 °F 12.2 °F 38% 30.07 in 10.0 mi WSW 5.8 mph - N/A   Clear
3:16 PM 35.6 °F 29.2 °F 10.4 °F 35% 30.07 in 10.0 mi West 8.1 mph - N/A   Clear
3:36 PM 35.6 °F 32.8 °F 12.2 °F 38% 30.07 in 10.0 mi West 3.5 mph - N/A   Clear
3:56 PM 35.6 °F 31.7 °F 12.2 °F 38% 30.07 in 10.0 mi WSW 4.6 mph - N/A   Clear
4:16 PM 35.6 °F 31.7 °F 12.2 °F 38% 30.07 in 10.0 mi WSW 4.6 mph - N/A   Clear
4:36 PM 35.6 °F 28.6 °F 12.2 °F 38% 30.06 in 10.0 mi SSW 9.2 mph - N/A   Clear
4:56 PM 35.6 °F 31.7 °F 12.2 °F 38% 30.07 in 10.0 mi West 4.6 mph - N/A   Clear
5:16 PM 35.6 °F 30.7 °F 12.2 °F 38% 30.06 in 10.0 mi West 5.8 mph - N/A   Clear
5:36 PM 35.6 °F 31.7 °F 12.2 °F 38% 30.06 in 10.0 mi West 4.6 mph - N/A   Clear
5:56 PM 35.6 °F 29.2 °F 12.2 °F 38% 30.06 in 10.0 mi West 8.1 mph - N/A   Clear
6:36 PM 35.6 °F 30.7 °F 12.2 °F 38% 30.06 in 10.0 mi NNW 5.8 mph - N/A   Clear
6:56 PM 35.6 °F 31.7 °F 10.4 °F 35% 30.06 in 10.0 mi NNW 4.6 mph - N/A   Clear
7:16 PM 35.6 °F 30.7 °F 10.4 °F 35% 30.06 in 10.0 mi West 5.8 mph - N/A   Clear
7:36 PM 33.8 °F - 10.4 °F 38% 30.06 in 10.0 mi Calm Calm - N/A   Clear
7:56 PM 33.8 °F 29.6 °F 10.4 °F 38% 30.06 in 10.0 mi NNE 4.6 mph - N/A   Clear
8:16 PM 33.8 °F 28.6 °F 10.4 °F 38% 30.06 in 10.0 mi North 5.8 mph - N/A   Clear
8:36 PM 33.8 °F 30.8 °F 10.4 °F 38% 30.06 in 10.0 mi North 3.5 mph - N/A   Clear
8:56 PM 32.0 °F - 12.2 °F 44% 30.06 in 10.0 mi Calm Calm - N/A   Clear
9:16 PM 30.2 °F - 12.2 °F 47% 30.07 in 10.0 mi Calm Calm - N/A   Clear
9:36 PM 30.2 °F 26.7 °F 12.2 °F 47% 30.07 in 10.0 mi NNW 3.5 mph - N/A   Clear
9:56 PM 28.4 °F - 15.8 °F 59% 30.07 in 10.0 mi Calm Calm - N/A   Clear
10:16 PM 26.6 °F - 15.8 °F 64% 30.07 in 10.0 mi Calm Calm - N/A   Clear
10:36 PM 24.8 °F - 15.8 °F 69% 30.07 in 10.0 mi Calm Calm - N/A   Clear
10:56 PM 24.8 °F - 15.8 °F 69% 30.08 in 10.0 mi Calm Calm - N/A   Clear
11:16 PM 24.8 °F - 14.0 °F 64% 30.07 in 10.0 mi Calm Calm - N/A   Clear
11:36 PM 24.8 °F - 12.2 °F 59% 30.07 in 10.0 mi Calm Calm - N/A   Clear
11:56 PM 23.0 °F - 14.0 °F 68% 30.08 in 10.0 mi Calm Calm - N/A   Clear